カタログに戻る

CZ-3B DEB

運用中GTO
NORAD 40164·DEBRIS·🇨🇳 China

打ち上げ Sep 4, 2010 から Xichang Satellite Launch Center

Loading…

TLE

経年Source: Space-Track

元期: Sep 14, 2026, 12:31 UTC

1 40164U 10042R   26257.52188850  .00000027  00000-0  00000-0 0  9990
2 40164  26.1171 213.8995 7329246  58.6981  18.8152  1.89873074 88965

AllMySatでCZ-3B DEBをリアルタイム追跡

Download on the App Store